Left ArrowRight Arrow

44.8408, -93.29828

Hourly Observations for June 24, 2024

Temp ( °F °C ) Dew Point ( °F °C ) Humidity (%) Winds ( mph kmh ) Pressure ( in mb ) Visibility ( mi km ) Precip ( " mm )
12:53 am 00:53 Mostly Clear 71 21.7 61 16.1 70 70 Calm 29.88 1012 10 16 0.00 0.00
1:53 am 01:53 Mostly Clear 68 20 61 16.1 78 78 ESE 3 6 29.88 1012 10 16 0.00 0.00
2:53 am 02:53 Mostly Clear 67 19.4 61 16.1 81 81 ESE 7 11 29.87 1012 10 16 0.00 0.00
3:53 am 03:53 Clear 66 18.9 61 16.1 84 84 ESE 7 11 29.86 1011 10 16 0.00 0.00
4:53 am 04:53 Mostly Clear 65 18.3 61 16.1 87 87 SE 5 7 29.85 1011 10 16 0.00 0.00
5:53 am 05:53 Mostly Sunny 65 18.3 61 16.1 87 87 SE 5 7 29.85 1011 10 16 0.00 0.00
6:53 am 06:53 Mostly Cloudy 67 19.4 60 15.6 79 79 SE 7 11 29.85 1011 10 16 0.00 0.00
7:53 am 07:53 Mostly Cloudy 69 20.6 61 16.1 75 75 SSE 10 17 29.84 1011 10 16 0.00 0.00
8:53 am 08:53 Mostly Cloudy 72 22.2 61 16.1 68 68 ESE 8 13 29.86 1011 10 16 0.00 0.00
9:53 am 09:53 Mostly Cloudy 76 24.4 62 16.7 62 62 ESE 8 13 29.85 1011 10 16 0.00 0.00
10:53 am 10:53 Mostly Cloudy 78 25.6 62 16.7 58 58 SE 14 22 29.82 1010 10 16 0.00 0.00
11:53 am 11:53 Mostly Cloudy 80 26.7 62 16.7 54 54 SE 14 22 29.80 1009 10 16 0.00 0.00
12:53 pm 12:53 Mostly Cloudy 83 28.3 62 16.7 49 49 ESE 17 28 29.79 1009 10 16 0.00 0.00
1:36 pm 13:36 Mostly Cloudy 82 27.8 63 17.2 53 53 SE 17 28 29.71 1006 10 16 0.00 0.00
1:53 pm 13:53 Mostly Cloudy 83 28.3 64 17.8 53 53 SE 15 24 29.73 1007 10 16 0.00 0.00
2:53 pm 14:53 Mostly Cloudy 83 28.3 65 18.3 55 55 SE 18 30 29.71 1006 10 16 0.00 0.00
3:53 pm 15:53 Cloudy 83 28.3 67 19.4 59 59 SE 16 26 29.68 1005 10 16 0.00 0.00
4:53 pm 16:53 Mostly Cloudy 85 29.4 69 20.6 59 59 ESE 21 33 29.66 1004 10 16 0.00 0.00
5:53 pm 17:53 Mostly Cloudy 83 28.3 69 20.6 63 63 SE 21 33 29.61 1003 10 16 0.00 0.00
6:53 pm 18:53 Mostly Cloudy 84 28.9 70 21.1 63 63 SE 14 22 29.59 1002 10 16 0.00 0.00
7:53 pm 19:53 Mostly Cloudy 82 27.8 71 21.7 69 69 SE 13 20 29.60 1002 10 16 0.00 0.00
8:53 pm 20:53 Mostly Cloudy 81 27.2 71 21.7 72 72 ESE 12 19 29.57 1002 10 16 0.00 0.00
9:53 pm 21:53 Mostly Cloudy 80 26.7 71 21.7 74 74 SE 9 15 29.53 1000 10 16 0.00 0.00
10:53 pm 22:53 Partly Cloudy 79 26.1 71 21.7 77 77 E 7 11 29.53 1000 10 16 0.00 0.00
11:53 pm 23:53 Mostly Cloudy 79 26.1 72 22.2 79 79 W 3 6 29.50 999 10 16 0.00 0.00

Powered by Vaisala Xweather